CROCUBE

Last updated on Fri Jun 19 2026 20:04:59 GMT+0000 (Coordinated Universal Time)

1 62394U 24247T 26170.49048578 .00032668 00000+0 60622-3 0 9997 2 62394 44.9701 246.5654 0007740 349.0739 10.9982 15.48397693 83708
UTC large
Height (km)
Speed (km/s)
/
Latitude / Longitude
Inclination (degrees)
Orbital Period (minutes)
Azimuth
Elevation
Range (km)
Doppler Factor

Next 0 passes for location: London (51.5072 / 0.1276)

No passes found over London.
CROCUBE